Home > Weather > Lennestadt > Past weeks

Flag for Germany Past Weather in Lennestadt, North Rhine-Westphalia, Germany — Yesterday and Last 2 Weeks

Now
57 °F

Broken clouds.


Feels Like: 54 °F
Forecast: 51 / 63 °F
Wind: 15 mph from Southeast

Location: Hessen

Current Time: May 31, 2016 at 12:23:25 PM

Latest Report: May 31, 2016 at 11:50 AM


Visibility: N/A

Pressure: 29.86 "Hg

Humidity: 88%

Dew Point: 54 °F

Location of LennestadtLocation

Past Weather in Lennestadt — Graph

°F

Lennestadt Temperature Yesterday

Maximum temperature yesterday: 61 °F (at 1:20 PM)
Minimum temperature yesterday: 57 °F (at 7:50 AM)
Average temperature yesterday: 59 °F

High & Low Weather Summary for the Past Weeks

 TemperatureHumidityPressure
High70 °F (May 22, 4:20 PM)100% (May 19, 7:50 AM)30.09 "Hg (May 19, 7:50 AM)
Low41 °F (May 16, 10:20 AM)47% (May 17, 4:50 PM)29.59 "Hg (May 30, 9:20 AM)
Average56 °F78%29.93 "Hg
* Reported May 16 10:20 AM — May 31 10:50 AM, Lennestadt, Weather by CustomWeather, © 2016

Note: Actual official high and low records may vary slightly from our data, if they occured in-between our weather recording intervals... More about our weather records

Advertising

Lennestadt Weather History for the Previous 24 Hours

Scroll right to see more
 ConditionsComfort  
Time TempWeatherWind HumidityBarometerVisibility
10:50 AM
Tue, May 31
57 °FPartly sunny.15 mph88%29.83 "HgN/A
10:20 AM55 °FPartly sunny.9 mph88%29.83 "HgN/A
9:20 AM55 °FBroken clouds.16 mph88%29.80 "HgN/A
8:50 AM54 °FBroken clouds.15 mph94%29.80 "HgN/A
8:20 AM54 °FBroken clouds.14 mph100%29.80 "HgN/A
7:50 AM54 °FDrizzle. Partly sunny.14 mph94%29.80 "HgN/A
8:50 PM
Mon, May 30
57 °FBroken clouds.12 mph100%29.68 "Hg5 mi
8:20 PM57 °FSprinkles. Broken clouds.12 mph100%29.68 "Hg4 mi
7:50 PM57 °FSprinkles. Broken clouds.8 mph100%29.65 "Hg5 mi
7:20 PM57 °FPartly sunny.12 mph100%29.65 "HgN/A
6:50 PM57 °FBroken clouds.12 mph100%29.65 "HgN/A
6:20 PM57 °FScattered showers. Broken clouds.13 mph100%29.65 "Hg4 mi
5:50 PM57 °FScattered showers. Broken clouds.13 mph100%29.65 "HgN/A
5:20 PM59 °FSprinkles. Partly sunny.13 mph94%29.65 "HgN/A
4:50 PM59 °FPartly sunny.10 mph94%29.65 "HgN/A
4:20 PM61 °FPartly sunny.10 mph94%29.65 "HgN/A
3:50 PM61 °FPartly sunny.14 mph88%29.62 "HgN/A
3:20 PM61 °FPartly sunny.13 mph100%29.62 "HgN/A
2:50 PM61 °FPartly sunny.13 mph100%29.62 "HgN/A
2:20 PM59 °FPartly sunny.10 mph100%29.62 "HgN/A
1:50 PM59 °FSprinkles. Partly sunny.12 mph100%29.62 "HgN/A
1:20 PM61 °FBroken clouds.8 mph100%29.62 "HgN/A
12:50 PM59 °FPartly sunny.8 mph100%29.62 "Hg5 mi
12:20 PM59 °FFog.6 mph100%29.62 "Hg2 mi
Weather by CustomWeather, © 2016

See weather overviewHow to use our weather pages